Regional Weather Roundup
Issued by NWS

Home | Current Version | Previous Version | Graphics & Text | Print | Product List | Glossary On
Versions: 1 2 3 4 5 6 7 8 9 10 11 12 13 14 15 16 17 18 19 20 21 22 23 24 25 26 27 28 29 30 31 32 33 34 35 36 37 38 39 40 41 42 43 44 45 46 47 48 49 50
000
ASUS45 KCYS 011710
RWRWY

WYOMING REGIONAL WEATHER ROUNDUP
NATIONAL WEATHER SERVICE CHEYENNE WY
1100 AM MDT MON JUN 01 2015

NOTE:  "FAIR" INDICATES FEW OR NO CLOUDS BELOW 12,000 FEET
WITH NO SIGNIFICANT WEATHER AND/OR OBSTRUCTIONS TO VISIBILITY.

WYZ001-011800-
...YELLOWSTONE NATIONAL PARK...

CITY           SKY/WX    TMP DP  RH WIND       PRES   REMARKS
LK YELLOWSTONE   N/A     55  40  56 E5        30.15
W YELLOWSTONE  NOT AVBL

$$
WYZ002>013-054>058-071-098>099-011800-
...NORTHERN WYOMING...

CITY           SKY/WX    TMP DP  RH WIND       PRES   REMARKS
JACKSON        SUNNY     64  48  55 CALM      30.06
CODY           FAIR      72  52  49 SE7       29.95
GREYBULL       FAIR      76  50  40 SE6       29.90
WORLAND        FAIR      78  50  37 SE6       29.91
SHERIDAN       FAIR      77  56  48 S7        29.89
BUFFALO        FAIR      75  55  49 SE10      29.96
GILLETTE       FAIR      75  59  57 S12       29.94
HULETT         FAIR      79  54  41 SW5       29.96
NEWCASTLE      FAIR      73  52  46 MISG      29.99

$$
WYZ014>020-022>026-101>103-011800-
...CENTRAL WYOMING...

CITY           SKY/WX    TMP DP  RH WIND       PRES   REMARKS
BIG PINEY      FAIR      67  44  43 S10       30.12
PINEDALE       FAIR      68  41  37 S15       30.13
DUBOIS         FAIR      64  37  36 CALM      30.10
LANDER         FAIR      69  49  48 NW3       30.00
RIVERTON       FAIR      72  50  45 S7        30.01
CASPER         FAIR      76  46  34 SW15      30.03
DOUGLAS        FAIR      77  48  35 CALM      30.01

$$
WYZ021-027>030-104>119-011800-
...SOUTHERN WYOMING...

CITY           SKY/WX    TMP DP  RH WIND       PRES   REMARKS
EVANSTON       FAIR      73  35  25 SW18      30.11
KEMMERER       FAIR      68  37  32 S6        30.13
FORT BRIDGER   FAIR      73  43  34 NW6       30.14
ROCK SPRINGS   FAIR      74  42  31 S16G22    30.12
DIXON          FAIR      74  40  30 CALM      30.17
RAWLINS        PTSUNNY   70  40  33 W13       30.16
SARATOGA       CLOUDY    70  37  30 SW7       30.19
LARAMIE        FAIR      73  40  30 SW15      30.17
CHEYENNE       FAIR      76  46  34 S12       30.12
TORRINGTON     FAIR      73  57  57 S6        30.00
PINE BLUFFS    FAIR      73  52  46 S12       30.08

$$



USA.gov is the U.S. government's official web portal to all federal, state and local government web resources and services.